Track STARLINK-3253 now! 10-day predictions STARLINK-3253 is classified as:
1 51136U 22005AJ 22142.91668981 -.00048680 00000-0 -30592-2 0 9993 2 51136 53.2164 44.5971 0001821 44.0645 263.4553 15.08865002 20492